Regional Weather Roundup
Issued by NWS

Home | Current Version | Previous Version | Text Only | Print | Product List | Glossary Off
Versions: 1 2 3 4 5 6 7 8 9 10 11 12 13 14 15 16 17 18 19 20 21 22 23 24 25 26 27 28 29 30 31 32 33 34 35 36 37 38 39 40 41 42 43 44 45 46 47 48 49 50

000
ASUS43 KDTX 040210
RWRMI
MICHIGAN HOURLY REGIONAL WEATHER ROUNDUP
NATIONAL WEATHER SERVICE DETROIT/PONTIAC MI
900 PM EST TUE MAR 03 2015

NOTE: "FAIR" INDICATES FEW OR NO CLOUDS BELOW 12,000 FEET WITH NO
SIGNIFICANT WEATHER AND/OR OBSTRUCTION TO VISIBILITY.

MIZ047>049-052>055-059>063-066>070-074>076-081>083-040300-
SOUTHEAST LOWER MICHIGAN

CITY           SKY/WX    TMP DP  RH WIND       PRES   REMARKS
ADRIAN         CLOUDY    35  31  85 NW13      29.72R WCI  26
ALMA           CLOUDY    31  27  83 W16G22    29.67R WCI  20
ANN ARBOR      CLOUDY    35  29  78 W21G29    29.68R WCI  24
BAD AXE        CLOUDY    31  29  93 W16G24    29.61R WCI  20
CARO           CLOUDY    32  28  86 W14G22    29.62S WCI  22
DETROIT CITY   CLOUDY    38  30  73 W16G28    29.67R WCI  29
DETROIT        CLOUDY    37  30  75 W16       29.68R WCI  28
FLINT          CLOUDY    34  27  75 W21       29.65R WCI  22
GROSSE ILE     CLOUDY    37  32  81 W14G21    29.67R WCI  29
HILLSDALE      CLOUDY    34  31  87 W18G32    29.70R WCI  23
HOWELL         CLOUDY    32  28  85 W20       29.66R WCI  21

CITY           SKY/WX    TMP DP  RH WIND       PRES   REMARKS
JACKSON        CLOUDY    34  28  79 W16G29    29.69R WCI  24
LAMBERTVILLE   CLOUDY    37  32  81 W12G18    29.72R WCI  30
LANSING        CLOUDY    32  27  81 W22G32    29.68R WCI  19
LAPEER         CLOUDY    32  28  85 W17G25    29.63R WCI  21
MASON          CLOUDY    32  28  83 W16       29.68S WCI  21
MONROE         CLOUDY    36  32  87 W16G22    29.68S WCI  26
MT. CLEMENS    CLOUDY    36  31  83 W15G22    29.64R WCI  26
PONTIAC        CLOUDY    33  28  81 W24       29.64R WCI  20
PORT HOPE        N/A     31  26  82 W9G18     29.59R WCI  23
PORT HURON     CLOUDY    34  32  93 W5        29.64R WCI  30
TRI CITIES     CLOUDY    33  27  78 W17       29.64R WCI  22
TROY           CLOUDY    37  31  81 W15G24    29.68R WCI  27
SAGINAW HB     CLOUDY    32  28  86 W18G28    29.64S WCI  20
$$
MIZ043>046-050>051-056>058-064>065-071>073-077>080-040300-
SOUTHWEST LOWER MICHIGAN

CITY           SKY/WX    TMP DP  RH WIND       PRES   REMARKS
BATTLE CREEK   CLOUDY    34  28  79 W15G28    29.73R WCI  24
BENTON HARBOR  CLOUDY    32  30  92 W15       29.77R WCI  22
BIG RAPIDS     CLOUDY    28  26  90 W13       29.66R WCI  18
COLDWATER      CLOUDY    34  29  82 W17G23    29.73R WCI  23
FREMONT        CLOUDY    29  24  82 W12       29.71R WCI  19
HOLLAND        CLOUDY    32  26  78 W10       29.76R WCI  24
GRAND RAPIDS   CLOUDY    31  26  82 W18       29.72R WCI  19
IONIA          CLOUDY    32  28  85 W14G20    29.69R WCI  22
KALAMAZOO      CLOUDY    34  28  79 W12       29.74R WCI  25
LUDINGTON      PTCLDY    31  24  74 W7        29.71R WCI  24
MARSHALL       CLOUDY    32  28  86 W13G22    29.71R WCI  23
MOUNT PLEASANT CLOUDY    30  25  81 W14G24    29.65R WCI  20
MUSKEGON       CLOUDY    31  23  72 W14       29.74R WCI  21
SOUTH HAVEN    CLOUDY    34  31  88 W9        29.76R WCI  26
$$
MIZ016>042-040300-
NORTHERN LOWER MICHIGAN

CITY           SKY/WX    TMP DP  RH WIND       PRES   REMARKS
ALPENA         CLOUDY    26  23  88 W6        29.54R WCI  19
BEAVER ISLAND  PTCLDY    23  19  85 W9        29.58R WCI  13
BELLAIRE       CLEAR     27  22  81 SW3       29.62R
CADILLAC       CLOUDY    25  22  87 W13G21    29.60R WCI  14
CHARLEVOIX     CLEAR     23  19  85 W17G23    29.62R WCI   9
FRANKFORT      CLEAR     28  23  81 W10G17    29.65R WCI  19
GAYLORD        CLOUDY    24  21  88 W20G28    29.53R WCI  10
GRAYLING       CLOUDY    28  24  86 W10G21    29.57R WCI  18
HARBOR SPRINGS CLEAR     22  19  88 W12       29.57R WCI  11
HOUGHTON LAKE  CLOUDY    26  21  81 W14       29.59R WCI  14
MANISTEE       PTCLDY    28  19  69 W13       29.68R WCI  18
OSCODA         CLOUDY    27  26  96 SW9       29.58R WCI  17
PELLSTON       PTCLDY    25  20  81 W14       29.56R WCI  13
ROGERS CITY    CLOUDY    26  25  94 W7        29.55R WCI  19
TRAVERSE CITY  PTCLDY    27  21  78 W9        29.61R WCI  18
$$
MIZ007>008-015-040300-
EASTERN UPPER MICHIGAN

CITY           SKY/WX    TMP DP  RH WIND       PRES   REMARKS
KINROSS        CLOUDY    21  21 100 W7        29.52R WCI  13
MACKINAC ISLAN CLOUDY    25  24  96 W15G21    29.53R WCI  12
NEWBERRY       LGT SNOW  21  20  98 SW6       29.53R WCI  13
S. S. MARIE    CLOUDY    23  19  85 SW8       29.52R WCI  14
MUNISING         N/A     27  19  72 VRB3      29.56R
$$
MIZ004>006-011>014-085-040300-
CENTRAL UPPER MICHIGAN

CITY           SKY/WX    TMP DP  RH WIND       PRES   REMARKS
MANISTIQUE     CLOUDY    25  21  85 W7        29.56F WCI  17
ESCANABA       PTCLDY    25  18  74 W6        29.61R WCI  18
MENOMINEE      PTCLDY    28  18  64 W5        29.63R WCI  23
SAWYER-GWINN   FLURRIES  23  19  86 W9        29.54R WCI  13
$$
MIZ001>003-009>011-084-040300-
WESTERN UPPER MICHIGAN

CITY           SKY/WX    TMP DP  RH WIND       PRES   REMARKS
IRON MOUNTAIN  MOCLDY    24  17  74 W10       29.58R WCI  14
HOUGHTON       MIX PCPN  16   8  71 W28G37    29.58R WCI  -4
COPPER HARBOR    N/A     21  12  68 N18G31    29.55R WCI   6
IRONWOOD       CLOUDY    19   9  63 W20G30    29.67R WCI   4
$$

ABBREVIATIONS USED IN REMARKS
   TC - TEMPERATURE IN CELSIUS
  WCI - WIND CHILL INDEX
   HX - HEAT INDEX
  VSB - VISIBILITY




USA.gov is the U.S. government's official web portal to all federal, state and local government web resources and services.